SCP
0 0 0 0 0 0 0 0 0 0 0 0 0 0 0 0 0 0 0 0 0 0 0 0 0 0 0 0 0 0 1 1
0 0 0 0 0 0 0 0 0 0 0 0 0 0 0 0 0 0 0 0 0 0 0 0 0 0 0 0 0 0 0 0
0 0 0 0 0 0 0 0 0 0 0 0 0 0 0 0 0 0 0 0 0 0 0 0 0 0 0 0 0 0 0 0
0 0 0 0 0 0 0 0 0 0 0 0 0 0 0 0 0 0 0 0 0 0 0 0 0 0 0 0 0 0 0 0
0 0 0 0 0 0 0 0 0 0 0 0 0 0 0 0 0 0 0 0 0 0 0 0 0 0 0 0 0 0 0 0
0 0 0 0 0 0 0 0 0 0 0 0 0 0 0 0 0 0 0 0 0 0 0 0 0 0 0 0 0 0 0 0
0 0 0 0 0 0 0 0 0 0 0 0 0 0 0 0 0 0 0 0 0 0 0 0 0 0 0 0 0 0 0 0
0 0 0 0 0 0 0 0 0 0 0 0 0 0 0 0 0 0 0 0 0 0 0 0 0 0 0 0 0 0 0 0
0 0 0 0 0 0 0 0 0 0 0 0 0 0 0 0 0 0 0 0 -0 0 -0 0 0 0 -0 0 0 0 0 0
0 0 0 0 0 0 0 0 0 0 0 0 0 0 0 0 0 0 0 0 0 0 0 0 0 -0 0 0 0 0 0 0
0 0 0 0 0 0 0 0 0 0 0 0 0 0 0 0 0 0 0 0 0 0 0 0 0 0 0 0 0 0 0 0
0 0 0 0 0 0 0 0 0 0 0 0 0 0 0 0 0 0 0 0 0 0 0 0 0 0 0 0 0 0 0 0
0 0 0 0 0 0 0 0 0 0 0 0 0 0 0 0 0 0 0 0 0 0 0 0 0 0 0 0 0 0 0 0
0 0 0 0 0 0 0 0 0 0 0 0 0 0 0 0 0 0 0 0 0 0 0 0 0 0 -0 -0 -0 -0 0 0
0 0 0 0 0 0 0 0 0 0 0 0 0 0 0 0 0 0 0 0 0 0 0 0 0 0 0 0 0 0 0 0
0 0 0 0 -0 0 0 0 -0 -0 -0 -0 0 0 0 0 0 0 0 -0 -0 0 0 0 0 0 0 0 0 0 0 0
0 0 0 0 -0 -0 -0 0 -0 -0 -0 -0 -0 0 0 0 0 0 0 0 0 0 0 0 0 0 0 0 0 0 0 0
0 0 0 0 -0 -0 -0 -0 -0 -0 0 -0 -0 -0 0 0 0 0 0 0 0 0 0 0 0 0 0 -0 -0 -0 -0 -0
0 0 0 0 -0 -0 -0 -0 -0 0 0 0 0 0 0 0 0 0 0 0 0 0 0 0 0 0 0 0 0 0 -0 -0
0 0 0 0 -0 0 0 0 0 0 -0 0 0 0 0 0 0 0 0 0 0 0 0 0 -0 -0 -0 -0 -0 -0 -0 -0
Wind_Speed_500mb
62 59 58 64 66 64 63 69 68 62 63 71 67 70 72 70 75 77 77 75 68 68 68 67 64 67 73 79 84 87 94 100
57 58 62 64 61 65 66 73 69 69 64 69 69 68 73 75 77 76 79 77 72 72 70 67 72 77 78 82 89 92 94 91
56 58 63 59 64 68 84 70 73 69 70 70 68 65 69 70 70 72 71 71 69 72 72 73 69 76 78 82 94 88 95 98
51 58 58 71 77 86 82 76 69 65 69 70 70 67 66 66 64 66 66 67 64 66 71 69 71 68 78 82 78 86 88 93
55 63 66 79 80 82 74 69 68 68 65 65 61 61 61 60 61 62 61 62 63 60 63 68 74 75 74 75 78 81 88 92
62 66 74 76 77 73 69 68 63 62 63 60 58 54 54 55 54 54 53 54 56 57 60 62 65 68 77 76 89 72 81 87
59 69 76 73 73 70 67 62 58 56 57 54 52 52 51 53 53 48 47 42 44 49 56 58 64 60 62 67 84 74 81 87
54 65 68 67 68 66 61 57 55 51 50 49 50 48 48 48 40 23 19 27 33 41 47 52 53 59 62 69 58 80 82 81
51 63 63 62 65 58 52 51 50 47 46 44 42 41 43 41 32 22 8 6 20 28 35 39 41 42 59 57 81 77 72 66
44 54 59 59 61 54 51 49 46 46 44 42 38 39 41 39 32 27 18 9 5 15 29 34 33 36 47 52 47 59 56 49
39 51 53 57 56 53 48 46 47 42 41 37 33 34 36 36 31 24 21 15 7 2 15 24 33 35 35 33 50 51 48 42
34 42 46 54 52 50 45 41 41 39 35 33 30 28 30 30 29 25 22 16 13 7 15 25 37 44 42 38 45 48 46 44
30 31 39 46 50 46 44 37 34 34 33 33 33 31 30 30 29 27 23 22 24 24 27 27 29 33 35 35 35 43 46 45
24 23 28 37 45 47 43 35 30 30 33 32 32 33 34 31 32 32 30 32 31 33 35 30 23 21 17 19 21 28 41 47
23 20 17 26 37 40 44 34 34 32 35 35 36 39 39 38 34 32 33 35 38 35 38 36 33 31 30 31 35 44 58 66
28 21 12 12 23 32 40 40 36 39 45 48 47 51 54 55 51 49 46 43 46 43 44 45 47 47 49 58 70 76 75 72
31 26 16 8 5 15 24 32 39 43 46 49 51 53 57 59 60 56 52 52 52 49 50 52 51 49 53 56 58 59 62 67
34 30 23 15 11 3 5 13 20 32 39 43 48 51 54 60 64 65 59 59 60 59 59 59 56 54 54 54 54 50 47 51
36 36 31 23 18 13 7 3 5 12 20 28 32 33 34 37 41 45 48 50 51 46 46 44 44 44 43 42 44 46 40 43
44 39 40 32 26 21 16 11 10 11 15 19 22 24 26 28 29 33 39 43 42 39 38 38 38 40 38 36 38 42 41 37
Wind_Direction_500mb
318 316 315 316 316 316 312 312 310 301 297 296 289 281 277 274 272 271 269 258 249 245 241 239 236 234 231 232 233 230 228 228
314 319 320 322 320 317 317 319 313 313 308 303 296 290 285 281 276 268 265 260 252 250 246 241 246 238 234 228 225 227 226 225
321 321 326 322 324 323 326 319 320 316 314 307 301 296 291 286 279 275 268 263 252 247 245 243 244 233 226 225 220 221 223 223
322 328 326 330 332 331 327 322 322 314 317 315 309 303 298 293 286 279 271 263 256 248 242 240 237 234 226 225 222 221 219 219
328 331 330 337 336 333 324 326 327 320 319 317 317 312 306 299 292 283 273 264 255 243 237 237 235 237 228 225 218 220 219 220
333 332 338 340 336 332 329 332 333 326 325 324 322 320 316 311 304 291 275 263 254 245 236 232 232 231 228 224 220 217 211 220
333 338 343 340 337 332 335 335 334 332 331 332 331 331 327 318 311 290 266 259 249 238 227 224 226 225 221 223 211 217 206 216
333 344 343 340 341 335 336 338 336 341 341 342 342 342 339 335 334 319 260 249 240 227 220 220 222 220 220 213 227 208 212 217
337 346 344 342 343 342 345 346 346 351 356 350 353 347 355 357 5 18 30 231 214 212 212 217 223 216 216 209 200 208 210 216
341 348 346 347 344 349 352 346 357 357 4 359 356 2 7 16 18 30 40 64 163 211 211 212 206 203 208 217 206 194 202 210
334 348 351 352 347 355 355 353 360 4 10 6 1 9 21 27 32 30 40 50 44 178 181 180 184 184 192 198 199 196 202 207
325 346 352 357 352 2 360 0 5 7 17 17 19 23 32 41 46 50 64 64 60 68 142 173 174 180 198 209 204 206 206 206
311 339 359 3 3 9 5 6 13 20 32 32 32 34 48 57 64 68 66 71 85 96 103 125 161 183 200 210 210 211 207 191
299 324 356 10 14 16 12 13 25 35 42 42 41 50 57 63 71 77 88 91 97 99 102 104 103 112 130 156 174 178 175 164
271 295 338 8 19 24 26 26 44 49 54 59 60 61 67 70 71 79 84 91 92 96 95 99 102 107 117 129 140 147 143 140
253 268 287 1 16 24 40 40 55 66 68 71 73 77 78 77 77 81 81 88 93 96 105 110 113 121 127 132 134 135 135 139
245 244 259 264 346 23 32 45 53 68 74 79 83 85 86 87 88 87 91 92 94 97 98 98 100 109 114 123 132 134 137 136
244 233 242 245 240 232 1 38 50 64 75 82 87 91 96 100 100 101 98 96 93 92 94 98 104 111 116 118 120 121 127 126
241 233 228 235 233 229 213 184 87 84 91 97 97 94 97 100 104 107 109 104 99 100 105 108 111 113 116 119 123 125 131 129
241 233 226 224 225 225 215 213 168 144 127 118 110 104 106 108 110 114 116 115 116 120 118 117 119 120 120 128 131 132 130 128
Wind_Speed_850mb
62 59 58 64 66 64 63 69 68 62 63 71 67 70 72 70 75 77 77 75 68 68 68 67 64 67 73 79 84 87 94 100
57 58 62 64 61 65 66 73 69 69 64 69 69 68 73 75 77 76 79 77 72 72 70 67 72 77 78 82 89 92 94 91
56 58 63 59 64 68 84 70 73 69 70 70 68 65 69 70 70 72 71 71 69 72 72 73 69 76 78 82 94 88 95 98
51 58 58 71 77 86 82 76 69 65 69 70 70 67 66 66 64 66 66 67 64 66 71 69 71 68 78 82 78 86 88 93
55 63 66 79 80 82 74 69 68 68 65 65 61 61 61 60 61 62 61 62 63 60 63 68 74 75 74 75 78 81 88 92
62 66 74 76 77 73 69 68 63 62 63 60 58 54 54 55 54 54 53 54 56 57 60 62 65 68 77 76 89 72 81 87
59 69 76 73 73 70 67 62 58 56 57 54 52 52 51 53 53 48 47 42 44 49 56 58 64 60 62 67 84 74 81 87
54 65 68 67 68 66 61 57 55 51 50 49 50 48 48 48 40 23 19 27 33 41 47 52 53 59 62 69 58 80 82 81
51 63 63 62 65 58 52 51 50 47 46 44 42 41 43 41 32 22 8 6 20 28 35 39 41 42 59 57 81 77 72 66
44 54 59 59 61 54 51 49 46 46 44 42 38 39 41 39 32 27 18 9 5 15 29 34 33 36 47 52 47 59 56 49
39 51 53 57 56 53 48 46 47 42 41 37 33 34 36 36 31 24 21 15 7 2 15 24 33 35 35 33 50 51 48 42
34 42 46 54 52 50 45 41 41 39 35 33 30 28 30 30 29 25 22 16 13 7 15 25 37 44 42 38 45 48 46 44
30 31 39 46 50 46 44 37 34 34 33 33 33 31 30 30 29 27 23 22 24 24 27 27 29 33 35 35 35 43 46 45
24 23 28 37 45 47 43 35 30 30 33 32 32 33 34 31 32 32 30 32 31 33 35 30 23 21 17 19 21 28 41 47
23 20 17 26 37 40 44 34 34 32 35 35 36 39 39 38 34 32 33 35 38 35 38 36 33 31 30 31 35 44 58 66
28 21 12 12 23 32 40 40 36 39 45 48 47 51 54 55 51 49 46 43 46 43 44 45 47 47 49 58 70 76 75 72
31 26 16 8 5 15 24 32 39 43 46 49 51 53 57 59 60 56 52 52 52 49 50 52 51 49 53 56 58 59 62 67
34 30 23 15 11 3 5 13 20 32 39 43 48 51 54 60 64 65 59 59 60 59 59 59 56 54 54 54 54 50 47 51
36 36 31 23 18 13 7 3 5 12 20 28 32 33 34 37 41 45 48 50 51 46 46 44 44 44 43 42 44 46 40 43
44 39 40 32 26 21 16 11 10 11 15 19 22 24 26 28 29 33 39 43 42 39 38 38 38 40 38 36 38 42 41 37
Wind_Direction_850mb
318 316 315 316 316 316 312 312 310 301 297 296 289 281 277 274 272 271 269 258 249 245 241 239 236 234 231 232 233 230 228 228
314 319 320 322 320 317 317 319 313 313 308 303 296 290 285 281 276 268 265 260 252 250 246 241 246 238 234 228 225 227 226 225
321 321 326 322 324 323 326 319 320 316 314 307 301 296 291 286 279 275 268 263 252 247 245 243 244 233 226 225 220 221 223 223
322 328 326 330 332 331 327 322 322 314 317 315 309 303 298 293 286 279 271 263 256 248 242 240 237 234 226 225 222 221 219 219
328 331 330 337 336 333 324 326 327 320 319 317 317 312 306 299 292 283 273 264 255 243 237 237 235 237 228 225 218 220 219 220
333 332 338 340 336 332 329 332 333 326 325 324 322 320 316 311 304 291 275 263 254 245 236 232 232 231 228 224 220 217 211 220
333 338 343 340 337 332 335 335 334 332 331 332 331 331 327 318 311 290 266 259 249 238 227 224 226 225 221 223 211 217 206 216
333 344 343 340 341 335 336 338 336 341 341 342 342 342 339 335 334 319 260 249 240 227 220 220 222 220 220 213 227 208 212 217
337 346 344 342 343 342 345 346 346 351 356 350 353 347 355 357 5 18 30 231 214 212 212 217 223 216 216 209 200 208 210 216
341 348 346 347 344 349 352 346 357 357 4 359 356 2 7 16 18 30 40 64 163 211 211 212 206 203 208 217 206 194 202 210
334 348 351 352 347 355 355 353 360 4 10 6 1 9 21 27 32 30 40 50 44 178 181 180 184 184 192 198 199 196 202 207
325 346 352 357 352 2 360 0 5 7 17 17 19 23 32 41 46 50 64 64 60 68 142 173 174 180 198 209 204 206 206 206
311 339 359 3 3 9 5 6 13 20 32 32 32 34 48 57 64 68 66 71 85 96 103 125 161 183 200 210 210 211 207 191
299 324 356 10 14 16 12 13 25 35 42 42 41 50 57 63 71 77 88 91 97 99 102 104 103 112 130 156 174 178 175 164
271 295 338 8 19 24 26 26 44 49 54 59 60 61 67 70 71 79 84 91 92 96 95 99 102 107 117 129 140 147 143 140
253 268 287 1 16 24 40 40 55 66 68 71 73 77 78 77 77 81 81 88 93 96 105 110 113 121 127 132 134 135 135 139
245 244 259 264 346 23 32 45 53 68 74 79 83 85 86 87 88 87 91 92 94 97 98 98 100 109 114 123 132 134 137 136
244 233 242 245 240 232 1 38 50 64 75 82 87 91 96 100 100 101 98 96 93 92 94 98 104 111 116 118 120 121 127 126
241 233 228 235 233 229 213 184 87 84 91 97 97 94 97 100 104 107 109 104 99 100 105 108 111 113 116 119 123 125 131 129
241 233 226 224 225 225 215 213 168 144 127 118 110 104 106 108 110 114 116 115 116 120 118 117 119 120 120 128 131 132 130 128